CDT,Max TemperatureF,Mean TemperatureF,Min TemperatureF,Max Dew PointF,MeanDew PointF,Min DewpointF,Max Humidity, Mean Humidity, Min Humidity, Max Sea Level PressureIn, Mean Sea Level PressureIn, Min Sea Level PressureIn, Max VisibilityMiles, Mean VisibilityMiles, Min VisibilityMiles, Max Wind SpeedMPH, Mean Wind SpeedMPH, Max Gust SpeedMPH,PrecipitationIn, CloudCover, Events, WindDirDegrees
2011-9-1,100,86,73,70,65,55,78,54,22,29.96,29.92,29.86,10,10,10,15,7,22,0.00,0,,162
2011-9-2,96,86,75,66,63,59,69,48,28,29.95,29.92,29.88,10,10,10,15,8,21,0.00,0,,197
2011-9-3,71,70,69,66,65,64,83,82,78,29.94,29.92,29.89,10,7,4,6,2,,0.09,5,Rain,169
2011-9-4,75,66,57,64,51,43,83,61,31,30.09,30.01,29.92,10,10,4,21,10,31,0.00,2,,308
2011-9-5,69,60,50,50,45,41,88,63,35,30.17,30.13,30.08,10,10,10,20,10,24,0.00,1,,1
2011-9-6,71,58,44,46,43,37,87,62,29,30.21,30.17,30.13,10,10,10,15,8,20,0.00,0,,8
2011-9-7,73,58,44,52,43,36,87,62,27,30.24,30.19,30.16,10,10,10,17,6,22,0.00,0,,342
2011-9-8,78,62,46,54,47,37,87,58,24,30.19,30.11,30.02,10,10,10,20,6,24,0.00,1,,339
2011-9-9,77,68,59,61,56,52,88,70,41,30.03,29.96,29.93,10,9,4,15,6,20,0.12,7,Rain,358
2011-9-10,78,68,59,63,58,52,94,73,39,30.04,30.01,29.96,10,7,0,9,4,,0.02,5,Fog-Rain,23
2011-9-11,84,70,55,61,55,48,94,64,29,30.07,30.04,29.99,10,8,0,12,2,,0.00,2,Fog,249
2011-9-12,89,74,59,61,54,46,88,54,22,30.06,29.97,29.86,10,10,10,15,7,26,0.00,0,,196
2011-9-13,78,66,55,57,50,41,82,56,26,30.02,29.94,29.85,10,10,10,14,7,20,0.00,0,,293
2011-9-14,62,53,44,50,43,32,82,66,32,30.25,30.11,29.96,10,10,5,16,7,20,0.10,3,Rain,337
2011-9-15,62,48,35,41,32,23,87,56,22,30.41,30.34,30.25,10,10,10,15,6,20,0.00,0,,3
2011-9-16,57,52,46,45,40,34,81,62,48,30.36,30.31,30.26,10,10,10,9,3,,0.02,6,Rain,58
2011-9-17,71,60,48,48,43,37,82,54,29,30.26,30.21,30.14,10,10,10,10,5,,0.00,7,,90
2011-9-18,64,62,59,61,55,46,94,79,52,30.14,30.04,29.94,10,6,1,8,4,,0.28,8,Rain,104
2011-9-19,77,66,53,61,55,45,94,75,32,30.03,29.99,29.93,10,8,2,14,4,18,0.00,5,,280
2011-9-20,78,66,53,55,50,45,94,62,30,30.06,29.99,29.91,10,8,3,15,6,18,0.00,1,,160
2011-9-21,77,65,53,54,43,32,72,50,19,30.09,30.00,29.95,10,10,10,21,9,26,0.00,2,,250
2011-9-22,68,55,42,46,41,32,87,62,28,30.16,30.12,30.07,10,10,10,14,4,24,0.00,2,,260
2011-9-23,64,50,37,48,39,34,94,65,32,30.14,30.09,30.03,10,9,0,14,3,,0.00,5,Fog,341
2011-9-24,64,52,39,45,41,36,93,68,37,30.04,29.99,29.95,10,9,2,15,4,23,0.00,5,Rain-Thunderstorm,19
2011-9-25,64,55,46,50,46,43,94,75,45,29.96,29.88,29.79,10,8,1,12,5,16,0.08,6,Rain-Thunderstorm,332
2011-9-26,59,52,44,54,49,41,94,90,77,29.79,29.66,29.56,10,4,0,22,8,34,0.88,8,Fog-Rain,247
2011-9-27,68,60,51,52,49,43,94,75,40,29.86,29.77,29.61,10,9,4,17,11,24,0.24,7,Rain,295
2011-9-28,71,58,46,54,49,45,94,73,41,29.87,29.84,29.81,10,8,0,13,4,17,0.01,4,Fog-Rain,282
2011-9-29,73,62,50,54,44,28,88,58,19,29.91,29.82,29.77,10,9,2,29,8,43,0.00,2,Rain,266
2011-9-30,68,56,44,41,36,32,71,46,28,30.18,30.07,29.92,10,10,10,21,14,31,0.00,1,,322